Location: Newark
(48.8833°N, 0.9236°W)
Time: 09:19:38
(UTC+00:00)

Tiros 1 despin weight - Pass Details

Date: 22 November 2019
Orbit: 594 x 642 km, 48.2° (Epoch: 08 December)

Event Time Altitude Azimuth Distance (km) Brightness Sun altitude
Rises 15:02:36 0° 271° (W) 2,830 ? 8.7°
Reaches altitude 10° 15:04:52 10° 270° (W) 1,931 ? 8.5°
Maximum altitude 15:09:18 83° 184° (S) 609 ? 7.9°
Drops below altitude 10° 15:13:47 10° 96° (E) 1,950 ? 7.4°
Sets 15:16:05 0° 96° (E) 2,860 ? 7.1°
